Change the Weather History Date:

Monday, November 7, 2011

  Actual Average Record
Temperature  
Mean Temperature 39 °F 44 °F  
Max Temperature 53 °F 61 °F 83 °F (1921)
Min Temperature 24 °F 27 °F 9 °F (1938)
Degree Days  
Heating Degree Days 26 21  
Month to date heating degree days 153 140  
Since 1 July heating degree days 559 607  
Cooling Degree Days 0 0  
Month to date cooling degree days 0 0  
Year to date cooling degree days 1533 1121  
Moisture  
Dew Point 31 °F    
Average Humidity 71    
Maximum Humidity 92    
Minimum Humidity 50    
Precipitation  
Precipitation 0.28 in 0.02 in 0.93 in (1925)
Month to date precipitation 0.48 0.15  
Year to date precipitation 14.57  
Snow  
Snow 0.00 in - - ()
Month to date snowfall 0.0  
Snow Depth 0.00 in    
Sea Level Pressure  
Sea Level Pressure 29.99 in    
Wind  
Wind Speed 8 mph (NE)    
Max Wind Speed 16 mph    
Max Gust Speed 21 mph    
Visibility 9 miles    
Events Rain    
T = Trace of Precipitation, MM = Missing Value Source: NWS Daily Summary

Daily Weather History Graph

Daily Weather History Graph

Search for Another Location

Airport or City:

Trip Planner

Search our weather history database for the weather conditions in past years. The results will help you decide how hot, cold, wet, or windy it might be!

Date:

Astronomy

Nov. 07, 2011 Rise Set
Actual Time 6:22 AM MST 4:45 PM MST
Civil Twilight 5:55 AM MST 5:13 PM MST
Nautical Twilight 5:23 AM MST 5:44 PM MST
Astronomical Twilight 4:52 AM MST 6:15 PM MST
Moon 2:56 PM MST (11/7) 3:29 AM MST (11/7)
Length of Visible Light 11h 18m
Length of Day
10h 22m
Waxing Gibbous, 92% of the Moon is Illuminated
Nov 7
Waxing Gibbous
Nov 10
Full
Nov 18
Last Quarter
Nov 24
New
Dec 2
First Quarter

Hourly Weather History & Observations

Time (MST) Temp. Windchill Dew Point Humidity Pressure Visibility Wind Dir Wind Speed Gust Speed Precip Events Conditions
12:53 AM 28.0 °F 22.8 °F 21.9 °F 78% 29.97 in 10.0 mi NE 4.6 mph - N/A   Clear
1:53 AM 24.1 °F 18.2 °F 19.9 °F 84% 30.00 in 10.0 mi West 4.6 mph - N/A   Clear
2:53 AM 26.1 °F 20.5 °F 21.0 °F 81% 30.00 in 10.0 mi NNE 4.6 mph - N/A   Clear
3:53 AM 26.1 °F 19.4 °F 21.0 °F 81% 30.00 in 10.0 mi NE 5.8 mph - N/A   Clear
4:53 AM 27.0 °F 19.5 °F 23.0 °F 85% 30.00 in 10.0 mi ENE 6.9 mph - N/A   Clear
5:53 AM 27.0 °F 19.5 °F 23.0 °F 85% 30.02 in 10.0 mi East 6.9 mph - N/A   Scattered Clouds
6:53 AM 30.9 °F 23.5 °F 25.0 °F 79% 30.02 in 10.0 mi East 8.1 mph - N/A   Overcast
7:53 AM 34.0 °F 29.8 °F 26.1 °F 73% 30.04 in 10.0 mi East 4.6 mph - N/A   Overcast
8:53 AM 36.0 °F 29.6 °F 28.0 °F 73% 30.04 in 10.0 mi WNW 8.1 mph - N/A   Partly Cloudy
9:53 AM 41.0 °F - 28.0 °F 60% 30.03 in 10.0 mi Calm Calm - N/A   Clear
10:53 AM 45.0 °F 41.2 °F 28.9 °F 53% 30.00 in 10.0 mi East 6.9 mph - N/A   Clear
11:53 AM 46.9 °F - 30.0 °F 52% 29.96 in 10.0 mi NE 4.6 mph - N/A   Partly Cloudy
12:53 PM 50.0 °F - 32.0 °F 50% 29.94 in 10.0 mi Variable 5.8 mph - N/A   Mostly Cloudy
1:53 PM 51.1 °F - 34.0 °F 52% 29.93 in 10.0 mi ESE 4.6 mph - N/A   Clear
2:53 PM 53.1 °F - 35.1 °F 50% 29.91 in 10.0 mi ENE 6.9 mph - N/A   Clear
5:53 PM 45.0 °F 38.9 °F 37.9 °F 76% 29.98 in 10.0 mi NE 12.7 mph - 0.00 in Rain Light Rain
6:38 PM 42.8 °F 36.2 °F 37.4 °F 81% 29.97 in 10.0 mi ENE 12.7 mph - 0.00 in   Overcast
7:53 PM 42.1 °F 34.9 °F 37.0 °F 82% 30.00 in 9.0 mi ENE 13.8 mph - 0.00 in Rain Light Rain
8:53 PM 39.9 °F 34.5 °F 37.9 °F 93% 30.03 in 7.0 mi NNE 8.1 mph - 0.04 in Rain Light Rain
9:05 PM 39.2 °F 34.2 °F 37.4 °F 93% 30.02 in 3.0 mi NE 6.9 mph - 0.04 in Rain Rain
9:28 PM 39.2 °F 33.0 °F 37.4 °F 93% 30.01 in 4.0 mi NE 9.2 mph - 0.09 in Rain Rain
9:40 PM 39.2 °F 34.2 °F 37.4 °F 93% 30.01 in 4.0 mi NNE 6.9 mph - 0.11 in Rain Light Rain
9:53 PM 39.0 °F 32.8 °F 37.0 °F 93% 30.00 in 6.0 mi NNE 9.2 mph - 0.12 in Rain Light Rain
10:53 PM 37.9 °F 31.5 °F 37.0 °F 97% 29.98 in 7.0 mi ENE 9.2 mph - 0.01 in   Overcast
11:53 PM 37.0 °F 29.3 °F 36.0 °F 96% 29.98 in 5.0 mi North 11.5 mph - 0.11 in Rain Rain